| time (UTC) | temp F | wind direction | speed MPH | gust MPH | rain 1hr in | rain 24hr in | rain mn in | humidity % | barometer mb |
| 20260504044003 | 69 | 61 | 0.0 | 0.0 | 0.00 | 0.01 | 0.00 | 87 | 1014.5 |
| 20260504043001 | 69 | 62 | 0.0 | 2.0 | 0.00 | 0.01 | 0.00 | 87 | 1014.5 |
| 20260504041001 | 69 | 44 | 0.0 | 2.0 | 0.00 | 0.01 | 0.00 | 87 | 1014.4 |
| 20260504040008 | 70 | 34 | 0.0 | 5.0 | 0.00 | 0.01 | 0.00 | 87 | 1014.3 |
| 20260504034001 | 70 | 98 | 1.0 | 4.0 | 0.00 | 0.01 | 0.01 | 87 | 1014.7 |
| 20260504033001 | 70 | 101 | 3.0 | 6.0 | 0.00 | 0.01 | 0.01 | 87 | 1014.6 |
| 20260504032001 | 69 | 68 | 1.0 | 6.0 | 0.00 | 0.01 | 0.01 | 87 | 1014.9 |
| 20260504024001 | 70 | 113 | 1.0 | 4.0 | 0.00 | 0.04 | 0.01 | 88 | 1014.9 |
| 20260504023003 | 70 | 107 | 2.0 | 4.0 | 0.00 | 0.04 | 0.01 | 88 | 1014.8 |
| 20260504021003 | 70 | 105 | 0.0 | 0.0 | 0.00 | 0.04 | 0.01 | 88 | 1014.9 |
| 20260504020004 | 70 | 106 | 1.0 | 4.0 | 0.00 | 0.04 | 0.01 | 88 | 1014.6 |
| 20260504014003 | 70 | 100 | 1.0 | 4.0 | 0.00 | 0.04 | 0.01 | 86 | 1014.5 |
| 20260504013001 | 71 | 107 | 0.0 | 3.0 | 0.00 | 0.04 | 0.01 | 86 | 1014.4 |
| 20260504012003 | 71 | 110 | 1.0 | 4.0 | 0.00 | 0.04 | 0.01 | 86 | 1014.3 |
| 20260504011001 | 71 | 112 | 0.0 | 2.0 | 0.00 | 0.04 | 0.01 | 85 | 1014.2 |
| 20260504010005 | 71 | 113 | 0.0 | 3.0 | 0.00 | 0.04 | 0.01 | 85 | 1014.1 |
| 20260504005000 | 71 | 113 | 1.0 | 3.0 | 0.00 | 0.05 | 0.01 | 84 | 1014.1 |
| 20260504004003 | 71 | 112 | 0.0 | 3.0 | 0.00 | 0.05 | 0.01 | 84 | 1013.9 |
| 20260504003001 | 71 | 82 | 0.0 | 2.0 | 0.00 | 0.05 | 0.01 | 84 | 1013.7 |
| 20260504001001 | 71 | 76 | 1.0 | 8.0 | 0.00 | 0.05 | 0.01 | 83 | 1013.3 |
| 20260504000005 | 71 | 97 | 1.0 | 4.0 | 0.00 | 0.05 | 0.01 | 84 | 1013.5 |
| 20260503235001 | 71 | 101 | 1.0 | 3.0 | 0.00 | 0.12 | 0.01 | 85 | 1013.3 |
| 20260503234003 | 71 | 105 | 1.0 | 4.0 | 0.00 | 0.12 | 0.01 | 86 | 1013.3 |
| 20260503233001 | 71 | 92 | 1.0 | 4.0 | 0.00 | 0.12 | 0.01 | 86 | 1013.4 |
| 20260503232003 | 71 | 129 | 2.0 | 4.0 | 0.00 | 0.12 | 0.01 | 86 | 1013.3 |
| 20260503231001 | 71 | 108 | 2.0 | 8.0 | 0.00 | 0.12 | 0.01 | 86 | 1013.3 |
| 20260503224003 | 72 | 114 | 3.0 | 7.0 | 0.00 | 0.13 | 0.01 | 85 | 1013.2 |
| 20260503223001 | 72 | 113 | 2.0 | 6.0 | 0.00 | 0.13 | 0.01 | 84 | 1013.2 |
| 20260503222003 | 72 | 104 | 4.0 | 8.0 | 0.00 | 0.13 | 0.01 | 83 | 1013.1 |
| 20260503220005 | 73 | 120 | 4.0 | 10.0 | 0.00 | 0.13 | 0.01 | 82 | 1013.1 |
| 20260503215001 | 73 | 102 | 5.0 | 9.0 | 0.00 | 0.35 | 0.01 | 81 | 1013.0 |
| 20260503214003 | 74 | 118 | 5.0 | 12.0 | 0.00 | 0.35 | 0.01 | 80 | 1013.0 |
| 20260503213001 | 74 | 101 | 4.0 | 12.0 | 0.00 | 0.35 | 0.01 | 80 | 1013.1 |
| 20260503212003 | 74 | 69 | 3.0 | 8.0 | 0.00 | 0.35 | 0.01 | 80 | 1013.3 |
| 20260503211001 | 73 | 92 | 3.0 | 8.0 | 0.00 | 0.35 | 0.01 | 82 | 1013.5 |
| 20260503210006 | 73 | 105 | 2.0 | 9.0 | 0.00 | 0.35 | 0.01 | 83 | 1013.5 |
| 20260503205001 | 72 | 80 | 4.0 | 10.0 | 0.00 | 0.35 | 0.01 | 83 | 1013.5 |
| 20260503204003 | 72 | 108 | 3.0 | 9.0 | 0.00 | 0.35 | 0.01 | 82 | 1013.6 |
| 20260503203001 | 72 | 111 | 3.0 | 9.0 | 0.00 | 0.35 | 0.01 | 82 | 1013.6 |
| 20260503202003 | 72 | 83 | 3.0 | 8.0 | 0.00 | 0.35 | 0.01 | 81 | 1013.7 |
| 20260503200006 | 72 | 97 | 3.0 | 9.0 | 0.00 | 0.35 | 0.01 | 81 | 1013.9 |
| 20260503195001 | 72 | 94 | 2.0 | 9.0 | 0.00 | 0.35 | 0.01 | 81 | 1013.9 |
| 20260503193001 | 72 | 31 | 3.0 | 11.0 | 0.01 | 0.35 | 0.01 | 83 | 1014.0 |
| 20260503192003 | 72 | 103 | 3.0 | 14.0 | 0.01 | 0.35 | 0.01 | 82 | 1014.1 |
| 20260503191001 | 72 | 80 | 3.0 | 11.0 | 0.01 | 0.35 | 0.01 | 84 | 1014.2 |
| 20260503190005 | 73 | 106 | 4.0 | 10.0 | 0.01 | 0.35 | 0.01 | 85 | 1014.4 |
| 20260503185000 | 72 | 88 | 1.0 | 8.0 | 0.01 | 0.35 | 0.01 | 89 | 1014.6 |
| 20260503184002 | 70 | 98 | 1.0 | 8.0 | 0.00 | 0.34 | 0.00 | 85 | 1014.8 |
| 20260503183000 | 71 | 131 | 3.0 | 10.0 | 0.00 | 0.34 | 0.00 | 84 | 1015.0 |
| 20260503182000 | 71 | 111 | 2.0 | 10.0 | 0.00 | 0.34 | 0.00 | 84 | 1014.9 |
| 20260503181002 | 71 | 57 | 2.0 | 9.0 | 0.00 | 0.34 | 0.00 | 83 | 1015.2 |
| 20260503174959 | 71 | 30 | 3.0 | 12.0 | 0.00 | 0.34 | 0.00 | 83 | 1015.3 |
| 20260503174000 | 71 | 66 | 3.0 | 10.0 | 0.00 | 0.34 | 0.00 | 83 | 1015.5 |
| 20260503171000 | 70 | 101 | 4.0 | 12.0 | 0.00 | 0.34 | 0.00 | 85 | 1015.6 |
| 20260503150959 | 67 | 81 | 3.0 | 9.0 | 0.00 | 0.34 | 0.00 | 91 | 1016.0 |
| 20260503131000 | 66 | 89 | 2.0 | 8.0 | 0.00 | 0.34 | 0.00 | 92 | 1014.8 |
| 20260503080959 | 72 | 349 | 0.0 | 0.0 | 0.00 | 0.34 | 0.00 | 92 | 1011.3 |
| 20260503053959 | 72 | 239 | 0.0 | 3.0 | 0.00 | 0.34 | 0.00 | 91 | 1012.1 |
| 20260503053001 | 72 | 238 | 2.0 | 4.0 | 0.00 | 0.34 | 0.00 | 91 | 1012.2 |
| 20260503051959 | 72 | 238 | 1.0 | 4.0 | 0.00 | 0.34 | 0.00 | 91 | 1012.4 |
| 20260503051001 | 72 | 240 | 1.0 | 4.0 | 0.00 | 0.34 | 0.00 | 91 | 1012.7 |
| 20260503050004 | 72 | 238 | 0.0 | 2.0 | 0.00 | 0.34 | 0.00 | 92 | 1012.5 |